Вернуться в каталог

STARLINK-2687

АктивенСвязьVLEO
NORAD 48466·PAYLOAD·🇺🇸 United States

Запущен May 9, 2021 с Cape Canaveral Space Force Station

Loading…

Ближайшие Пролёты (ближайшие 24 часа)

TLE

СвежийSource: CelesTrak SupGP

Эпоха: Sep 14, 2026, 20:28 UTC

1 48466C 21040AQ  26257.85326389  .00048806  00000+0  15692-2 0  2578
2 48466  53.1604  30.7883 0001084  69.5223 359.4670 15.31683189    18

Отслеживайте STARLINK-2687 в реальном времени с AllMySat

Download on the App Store